FW2972 Weather Reports


Display with metric or nautical units.
time (UTC)temp
F
wind
direction
speed
MPH
gust
MPH
rain 1hr
in
rain 24hr
in
rain mn
in
humidity
%
barometer
mb
20260508115120 68 62 0.0 3.0 0.00 0.01 0.01 99 1016.9
20260508114618 68 151 0.0 3.0 0.00 0.01 0.01 99 1016.7
20260508114113 68 108 0.0 3.0 0.00 0.01 0.01 99 1016.9
20260508113611 68 180 0.0 2.0 0.00 0.01 0.01 99 1016.9
20260508113109 68 133 3.0 5.0 0.00 0.01 0.01 99 1017.0
20260508112605 68 150 1.0 3.0 0.00 0.01 0.01 99 1017.4
20260508112102 68 121 3.0 3.0 0.00 0.01 0.01 99 1017.3
20260508111559 68 148 1.0 2.0 0.00 0.01 0.01 99 1017.4
20260508111056 68 104 1.0 3.0 0.00 0.01 0.01 99 1017.2
20260508110554 68 144 0.0 4.0 0.00 0.01 0.01 99 1017.4
20260508110050 68 110 0.0 2.0 0.00 0.01 0.01 99 1017.1
20260508105545 68 116 0.0 3.0 0.00 0.01 0.01 99 1016.9
20260508105042 68 205 0.0 3.0 0.00 0.01 0.01 99 1016.7
20260508104540 68 217 1.0 2.0 0.00 0.01 0.01 99 1016.7
20260508104036 68 117 1.0 5.0 0.00 0.01 0.01 99 1016.4
20260508103533 68 108 4.0 8.0 0.00 0.01 0.01 99 1016.6
20260508103031 68 137 0.0 3.0 0.00 0.01 0.01 99 1016.5
20260508102528 68 162 0.0 3.0 0.00 0.01 0.01 99 1016.5
20260508102026 68 94 1.0 3.0 0.00 0.01 0.01 99 1016.9
20260508101523 68 109 3.0 8.0 0.00 0.01 0.01 99 1016.6
20260508101020 69 103 0.0 5.0 0.00 0.01 0.01 99 1016.5
20260508100519 69 148 0.0 5.0 0.00 0.01 0.01 99 1016.6
20260508100015 69 110 0.0 4.0 0.00 0.01 0.01 99 1016.7
20260508095512 69 98 2.0 3.0 0.02 0.01 0.01 99 1016.9
20260508095009 69 82 0.0 2.0 0.02 0.01 0.01 99 1017.0
20260508094506 69 89 0.0 5.0 0.02 0.01 0.01 99 1016.9
20260508094003 69 198 1.0 2.0 0.05 0.01 0.01 99 1017.0
20260508093459 70 46 1.0 4.0 0.02 0.00 0.00 99 1017.0
20260508092957 70 214 0.0 4.0 0.00 0.00 0.00 99 1017.1
20260508092449 71 109 1.0 3.0 0.00 0.00 0.00 99 1017.0
20260508091948 72 226 1.0 2.0 0.00 0.00 0.00 99 1016.9
20260508091444 72 143 1.0 1.0 0.00 0.00 0.00 98 1017.1
20260508090941 72 142 0.0 1.0 0.00 0.00 0.00 98 1017.2
20260508090440 72 135 1.0 3.0 0.00 0.00 0.00 98 1016.7
20260508085935 72 187 0.0 5.0 0.00 0.00 0.00 97 1016.8
20260508085432 73 121 4.0 4.0 0.00 0.00 0.00 96 1016.9
20260508084929 73 171 3.0 9.0 0.00 0.00 0.00 95 1016.8
20260508084426 73 125 2.0 4.0 0.00 0.00 0.00 95 1016.7
20260508083924 73 161 2.0 3.0 0.00 0.00 0.00 95 1017.0
20260508083421 73 125 4.0 7.0 0.00 0.00 0.00 95 1017.1
20260508082920 73 129 3.0 11.0 0.00 0.00 0.00 94 1016.9
20260508082418 73 116 5.0 6.0 0.00 0.00 0.00 94 1016.8
20260508081916 73 196 3.0 8.0 0.00 0.00 0.00 93 1017.1
20260508081413 74 197 3.0 9.0 0.00 0.00 0.00 92 1017.0
20260508080909 74 108 1.0 5.0 0.00 0.00 0.00 91 1017.3
20260508080407 74 164 1.0 3.0 0.00 0.00 0.00 91 1016.8
20260508075903 74 34 0.0 3.0 0.00 0.00 0.00 91 1016.9
20260508075400 74 98 2.0 9.0 0.00 0.00 0.00 90 1016.9
20260508074858 74 146 2.0 6.0 0.00 0.00 0.00 91 1016.6
20260508074355 74 125 4.0 7.0 0.00 0.00 0.00 91 1016.8
20260508073852 74 149 2.0 8.0 0.00 0.00 0.00 92 1016.7
20260508073350 73 130 3.0 6.0 0.00 0.00 0.00 92 1016.9
20260508072846 73 108 3.0 3.0 0.00 0.00 0.00 91 1017.0
20260508072343 73 152 1.0 3.0 0.00 0.00 0.00 91 1017.2
20260508071840 73 107 1.0 3.0 0.00 0.00 0.00 91 1017.3
20260508071339 73 159 0.0 3.0 0.00 0.00 0.00 91 1017.5
20260508070836 73 183 0.0 3.0 0.00 0.00 0.00 91 1017.3
20260508070334 73 125 1.0 2.0 0.00 0.00 0.00 90 1017.3
20260508065831 73 252 2.0 2.0 0.00 0.00 0.00 90 1016.9
20260508065329 73 220 1.0 7.0 0.00 0.00 0.00 90 1016.9
20260508064827 73 89 0.0 3.0 0.00 0.00 0.00 90 1017.3
20260508064324 73 329 0.0 6.0 0.00 0.00 0.00 90 1017.3
20260508063822 74 126 0.0 4.0 0.00 0.00 0.00 90 1016.8
20260508063320 73 135 1.0 5.0 0.00 0.00 0.00 90 1017.3
20260508062816 74 126 1.0 3.0 0.00 0.00 0.00 90 1017.4
20260508062314 74 123 2.0 8.0 0.00 0.00 0.00 89 1017.5
20260508061810 73 137 1.0 3.0 0.00 0.00 0.00 89 1017.6
20260508061308 73 195 0.0 3.0 0.00 0.00 0.00 89 1017.6
20260508060804 74 142 0.0 3.0 0.00 0.00 0.00 89 1017.9
20260508060303 74 139 1.0 3.0 0.00 0.00 0.00 89 1017.4
20260508055757 73 126 1.0 5.0 0.00 0.00 0.00 89 1017.7
20260508055255 73 134 0.0 4.0 0.00 0.00 0.00 89 1017.5
20260508054751 73 117 2.0 3.0 0.00 0.00 0.00 89 1017.5
20260508054249 73 130 2.0 2.0 0.00 0.00 0.00 89 1017.4
20260508053745 73 133 1.0 2.0 0.00 0.00 0.00 89 1017.3
20260508053243 73 134 1.0 3.0 0.00 0.00 0.00 89 1017.0
20260508052740 73 74 0.0 6.0 0.00 0.00 0.00 89 1016.9
20260508052237 73 133 3.0 5.0 0.00 0.00 0.00 89 1017.1
20260508051733 73 127 1.0 5.0 0.00 0.00 0.00 90 1017.1
20260508051229 73 156 2.0 5.0 0.00 0.00 0.00 90 1017.3
20260508050725 73 132 0.0 4.0 0.00 0.00 0.00 90 1017.0
20260508050223 73 132 2.0 5.0 0.00 0.00 0.00 90 1016.9
20260508045718 73 128 3.0 6.0 0.00 0.00 0.00 89 1016.9
20260508045216 73 125 2.0 4.0 0.00 0.00 0.00 89 1017.2
20260508044713 73 127 4.0 8.0 0.00 0.00 0.00 88 1017.1
20260508044210 73 164 3.0 6.0 0.00 0.00 0.00 88 1016.5
20260508043706 73 149 2.0 8.0 0.00 0.00 0.00 87 1017.0
20260508043204 73 147 2.0 4.0 0.00 0.00 0.00 86 1017.2
20260508042700 73 130 0.0 5.0 0.00 0.00 0.00 86 1017.5
20260508042157 74 110 1.0 7.0 0.00 0.00 0.00 86 1017.6
20260508041654 74 89 2.0 7.0 0.00 0.00 0.00 86 1017.6
20260508041151 74 151 2.0 7.0 0.00 0.00 0.00 85 1018.1
20260508040647 74 187 0.0 5.0 0.00 0.00 0.00 85 1018.1
20260508040145 75 152 2.0 4.0 0.00 0.00 0.00 85 1018.3
20260508035642 75 136 3.0 7.0 0.00 0.00 0.00 85 1018.3
20260508035139 75 135 2.0 4.0 0.00 0.00 0.00 84 1018.3
20260508034636 75 140 2.0 5.0 0.00 0.00 0.00 84 1018.3
20260508034133 75 132 2.0 7.0 0.00 0.00 0.00 84 1018.4
20260508033630 75 182 2.0 8.0 0.00 0.00 0.00 83 1018.3
20260508033128 75 181 4.0 5.0 0.00 0.00 0.00 83 1018.3
20260508032624 75 113 0.0 3.0 0.00 0.00 0.00 83 1018.4
20260508032122 75 225 1.0 4.0 0.00 0.00 0.00 83 1018.2
20260508031619 75 136 1.0 4.0 0.00 0.00 0.00 83 1018.3
20260508031115 75 236 1.0 3.0 0.00 0.00 0.00 83 1018.1
20260508030612 75 89 0.0 3.0 0.00 0.00 0.00 83 1018.3
20260508030110 75 96 2.0 5.0 0.00 0.00 0.00 82 1018.0
20260508025605 75 178 0.0 2.0 0.00 0.00 0.00 82 1017.8
20260508025103 75 77 3.0 5.0 0.00 0.00 0.00 82 1017.9
20260508024558 75 126 1.0 3.0 0.00 0.00 0.00 81 1018.3
20260508024056 76 109 1.0 3.0 0.00 0.00 0.00 81 1018.0
20260508023552 76 143 3.0 10.0 0.00 0.00 0.00 80 1017.8
20260508023050 76 158 3.0 4.0 0.00 0.00 0.00 80 1017.9
20260508022545 76 89 0.0 3.0 0.00 0.00 0.00 80 1018.0
20260508022043 76 201 0.0 4.0 0.00 0.00 0.00 80 1018.0
20260508021538 76 247 1.0 3.0 0.00 0.00 0.00 80 1017.9
20260508021034 76 256 0.0 2.0 0.00 0.00 0.00 81 1017.9
20260508020532 76 154 0.0 3.0 0.00 0.00 0.00 80 1017.9
20260508020030 76 184 2.0 4.0 0.00 0.00 0.00 80 1017.8
20260508015527 76 176 1.0 2.0 0.00 0.00 0.00 80 1017.8
20260508015024 76 171 3.0 4.0 0.00 0.00 0.00 79 1018.0
20260508014520 76 4 0.0 3.0 0.00 0.00 0.00 80 1018.1
20260508014016 76 233 2.0 3.0 0.00 0.00 0.00 80 1018.0
20260508013513 76 350 0.0 3.0 0.00 0.00 0.00 81 1018.0
20260508013010 76 55 0.0 2.0 0.00 0.00 0.00 81 1018.0
20260508012507 76 15 0.0 3.0 0.00 0.00 0.00 81 1017.9
20260508012004 76 166 1.0 3.0 0.00 0.00 0.00 81 1017.9
20260508011503 76 205 0.0 2.0 0.00 0.00 0.00 81 1017.8
20260508011000 76 196 0.0 3.0 0.00 0.00 0.00 81 1017.8
20260508010456 76 123 2.0 5.0 0.00 0.00 0.00 82 1017.4
20260508005954 76 240 0.0 4.0 0.00 0.00 0.00 82 1017.5
20260508005450 76 98 0.0 2.0 0.00 0.00 0.00 82 1017.6
20260508004947 77 72 0.0 2.0 0.00 0.00 0.00 83 1017.8
20260508004443 77 116 0.0 3.0 0.00 0.00 0.00 82 1017.6
20260508003940 77 104 0.0 4.0 0.00 0.00 0.00 82 1017.5
20260508003437 77 174 0.0 2.0 0.00 0.00 0.00 81 1017.6
20260508002934 77 205 0.0 4.0 0.00 0.00 0.00 81 1017.4
20260508002430 77 160 0.0 4.0 0.00 0.00 0.00 81 1017.6
20260508001926 77 129 1.0 2.0 0.00 0.00 0.00 81 1017.6
20260508001423 77 159 0.0 3.0 0.00 0.00 0.00 81 1017.7
20260508000919 78 162 0.0 1.0 0.00 0.00 0.00 81 1017.6
20260508000415 78 280 0.0 2.0 0.00 0.00 0.00 80 1017.5
20260507235913 78 114 0.0 3.0 0.00 0.00 0.00 81 1017.7
20260507235409 77 157 3.0 7.0 0.00 0.00 0.00 80 1017.6
20260507234906 78 85 3.0 5.0 0.00 0.00 0.00 80 1017.4
20260507234403 78 140 2.0 6.0 0.00 0.00 0.00 80 1017.2
20260507233900 78 136 1.0 6.0 0.00 0.00 0.00 80 1017.4
20260507233357 78 123 3.0 5.0 0.00 0.00 0.00 80 1017.4
20260507232855 78 174 1.0 7.0 0.00 0.00 0.00 80 1017.3
20260507232351 79 103 0.0 4.0 0.00 0.00 0.00 80 1017.3
20260507231849 79 190 1.0 5.0 0.00 0.00 0.00 79 1017.3
20260507231345 79 101 2.0 5.0 0.00 0.00 0.00 78 1017.1
20260507230841 79 128 0.0 5.0 0.00 0.00 0.00 78 1017.3
20260507230339 79 184 0.0 5.0 0.00 0.00 0.00 79 1017.2
20260507225838 79 156 1.0 5.0 0.00 0.00 0.00 78 1017.5
20260507225335 79 128 1.0 6.0 0.00 0.00 0.00 78 1017.5
20260507224831 80 171 2.0 5.0 0.00 0.00 0.00 77 1017.5
20260507224328 81 220 0.0 4.0 0.00 0.00 0.00 78 1017.4
20260507223824 80 166 0.0 3.0 0.00 0.00 0.00 77 1017.3
20260507223320 80 208 0.0 5.0 0.00 0.00 0.00 77 1017.4
20260507222818 80 204 1.0 8.0 0.00 0.00 0.00 77 1017.3
20260507222314 80 132 2.0 6.0 0.00 0.00 0.00 75 1017.3
20260507221811 82 102 2.0 4.0 0.00 0.00 0.00 74 1017.3
20260507221307 82 104 0.0 3.0 0.00 0.00 0.00 74 1017.2
20260507220803 81 132 0.0 5.0 0.00 0.00 0.00 78 1017.3
20260507220302 81 181 3.0 5.0 0.00 0.00 0.00 75 1017.3
20260507215758 82 182 1.0 4.0 0.00 0.00 0.00 73 1017.5
20260507215256 81 300 0.0 4.0 0.00 0.00 0.00 74 1017.2
20260507214752 81 255 0.0 4.0 0.00 0.00 0.00 76 1017.4
20260507214250 81 183 3.0 6.0 0.00 0.00 0.00 73 1017.3
20260507213745 81 186 0.0 3.0 0.00 0.00 0.00 74 1017.1
20260507213242 82 292 0.0 3.0 0.00 0.00 0.00 75 1017.1
20260507212738 83 156 2.0 3.0 0.00 0.00 0.00 72 1017.2
20260507212235 83 281 2.0 5.0 0.00 0.00 0.00 71 1017.4
20260507211732 82 243 2.0 5.0 0.00 0.00 0.00 71 1017.8
20260507211228 83 311 0.0 4.0 0.00 0.00 0.00 73 1017.6
20260507210725 83 242 0.0 2.0 0.00 0.00 0.00 72 1017.7
20260507210222 82 269 0.0 4.0 0.00 0.00 0.00 72 1017.7
20260507205718 81 173 1.0 6.0 0.00 0.00 0.00 74 1018.0
20260507205215 81 189 2.0 7.0 0.00 0.00 0.00 73 1017.9
20260507204711 81 44 1.0 5.0 0.00 0.00 0.00 73 1018.2
20260507204209 80 18 1.0 5.0 0.00 0.00 0.00 75 1018.1
20260507203707 79 343 0.0 4.0 0.00 0.00 0.00 76 1018.2
20260507203204 78 64 1.0 6.0 0.00 0.00 0.00 77 1018.2
20260507202700 78 325 0.0 4.0 0.00 0.00 0.00 79 1018.2
20260507202156 78 336 2.0 4.0 0.00 0.00 0.00 78 1018.3
20260507201651 77 299 0.0 5.0 0.00 0.00 0.00 79 1018.6
20260507201148 77 65 0.0 4.0 0.00 0.00 0.00 79 1018.5
20260507200644 77 322 2.0 4.0 0.00 0.00 0.00 77 1018.7
20260507200140 78 318 1.0 6.0 0.00 0.00 0.00 77 1018.6
20260507195637 78 263 1.0 4.0 0.00 0.00 0.00 77 1018.5
20260507195134 78 89 0.0 3.0 0.00 0.00 0.00 78 1018.7
20260507194631 77 100 1.0 6.0 0.00 0.00 0.00 78 1018.8
20260507194126 76 358 0.0 4.0 0.00 0.00 0.00 78 1018.9
20260507193624 77 23 0.0 3.0 0.00 0.00 0.00 79 1018.8
20260507193121 77 110 1.0 4.0 0.00 0.00 0.00 77 1018.9
20260507192617 76 117 0.0 5.0 0.00 0.00 0.00 79 1019.0
20260507192114 76 178 3.0 3.0 0.00 0.00 0.00 78 1019.1
20260507191610 77 240 3.0 3.0 0.00 0.00 0.00 76 1019.1
20260507191107 77 46 2.0 4.0 0.00 0.00 0.00 77 1019.1
20260507190604 76 197 2.0 7.0 0.00 0.00 0.00 77 1019.0
20260507185601 78 19 0.0 2.0 0.00 0.00 0.00 76 1019.2
20260507185057 77 266 1.0 3.0 0.00 0.00 0.00 76 1019.3
20260507184555 75 217 0.0 4.0 0.00 0.00 0.00 79 1019.0
20260507184053 74 294 0.0 5.0 0.00 0.00 0.00 79 1019.3
20260507183548 74 203 0.0 4.0 0.00 0.00 0.00 80 1019.4
20260507183046 73 349 1.0 4.0 0.00 0.00 0.00 81 1019.2
20260507182542 73 107 0.0 3.0 0.00 0.00 0.00 81 1019.3
20260507182038 73 9 3.0 5.0 0.00 0.00 0.00 81 1019.5
20260507181535 73 41 0.0 3.0 0.00 0.00 0.00 82 1019.6
20260507181031 73 43 1.0 4.0 0.00 0.00 0.00 80 1019.5
20260507180528 72 79 0.0 3.0 0.00 0.00 0.00 83 1019.7
20260507180025 71 32 3.0 5.0 0.00 0.00 0.00 82 1019.7
20260507175521 71 254 2.0 3.0 0.00 0.00 0.00 83 1019.9
20260507175019 70 229 0.0 4.0 0.00 0.00 0.00 85 1019.9
20260507174515 69 175 3.0 6.0 0.00 0.00 0.00 84 1019.8
20260507174013 70 25 3.0 6.0 0.00 0.00 0.00 83 1019.9
20260507173510 69 135 1.0 5.0 0.00 0.00 0.00 84 1019.8
20260507173008 69 347 0.0 7.0 0.00 0.00 0.00 84 1019.9
20260507172503 70 338 4.0 9.0 0.00 0.00 0.00 82 1020.1
20260507172000 70 19 0.0 7.0 0.00 0.00 0.00 83 1020.1
20260507171455 69 75 0.0 6.0 0.00 0.00 0.00 85 1020.0
20260507170953 69 46 0.0 9.0 0.00 0.00 0.00 84 1020.2
20260507170450 69 290 0.0 6.0 0.00 0.00 0.00 84 1020.1
20260507165946 69 102 0.0 3.0 0.00 0.00 0.00 84 1020.0
20260507165442 69 131 1.0 4.0 0.00 0.00 0.00 84 1020.0
20260507164938 69 69 0.0 7.0 0.00 0.00 0.00 85 1020.0
20260507164435 68 309 0.0 4.0 0.00 0.00 0.00 86 1019.8
20260507163932 67 157 1.0 4.0 0.00 0.00 0.00 87 1020.0
20260507163429 67 29 4.0 6.0 0.00 0.00 0.00 86 1020.1
20260507162926 67 175 1.0 2.0 0.00 0.00 0.00 87 1020.1
20260507162421 66 69 2.0 4.0 0.00 0.00 0.00 88 1020.0
20260507161919 66 39 2.0 7.0 0.00 0.00 0.00 88 1020.0
20260507161414 66 54 0.0 2.0 0.00 0.00 0.00 90 1020.1
20260507160912 65 36 2.0 7.0 0.00 0.00 0.00 89 1020.0
20260507160408 66 45 1.0 3.0 0.00 0.00 0.00 89 1019.9
20260507155904 65 143 0.0 3.0 0.00 0.00 0.00 90 1020.0
20260507155400 65 134 0.0 4.0 0.00 0.00 0.00 90 1020.1
20260507154857 65 31 1.0 6.0 0.00 0.00 0.00 90 1020.2
20260507154354 65 95 1.0 6.0 0.00 0.00 0.00 90 1020.4
20260507153851 65 20 3.0 5.0 0.00 0.00 0.00 90 1020.1
20260507153347 65 317 2.0 4.0 0.00 0.00 0.00 90 1020.2
20260507152844 65 60 0.0 3.0 0.00 0.00 0.00 91 1020.2
20260507152340 65 3 1.0 3.0 0.00 0.00 0.00 90 1020.1
20260507151837 65 142 0.0 7.0 0.00 0.00 0.00 90 1020.2
20260507151333 65 59 1.0 4.0 0.00 0.00 0.00 90 1020.2
20260507150830 65 110 1.0 7.0 0.00 0.00 0.00 90 1020.0
20260507150327 65 75 2.0 5.0 0.00 0.00 0.00 89 1020.0
20260507145823 65 70 1.0 6.0 0.00 0.00 0.00 90 1019.7
20260507145319 65 101 2.0 5.0 0.00 0.00 0.00 90 1020.0
20260507144817 65 77 0.0 5.0 0.00 0.00 0.00 90 1020.1
20260507144314 65 326 3.0 6.0 0.00 0.00 0.00 89 1019.8
20260507143810 65 91 1.0 9.0 0.00 0.00 0.00 90 1019.9
20260507143308 66 179 2.0 4.0 0.00 0.00 0.00 89 1019.7
20260507142803 66 180 0.0 5.0 0.00 0.00 0.00 89 1019.7
20260507142300 66 334 3.0 6.0 0.00 0.00 0.00 89 1019.8
20260507141756 67 332 1.0 9.0 0.00 0.00 0.00 88 1019.6
20260507141254 67 209 2.0 5.0 0.00 0.00 0.00 88 1019.4
20260507140749 67 290 1.0 3.0 0.00 0.00 0.00 89 1019.5
20260507140247 66 93 0.0 4.0 0.00 0.00 0.00 91 1019.5
20260507135744 66 202 2.0 4.0 0.00 0.00 0.00 91 1019.7
20260507135242 66 61 2.0 4.0 0.00 0.00 0.00 91 1019.9
20260507134737 65 91 0.0 3.0 0.00 0.00 0.00 91 1020.2
20260507134234 65 107 0.0 3.0 0.00 0.00 0.00 91 1019.9
20260507133730 65 89 0.0 4.0 0.00 0.00 0.00 91 1019.9
20260507133227 65 194 3.0 4.0 0.00 0.00 0.00 91 1020.1
20260507132725 65 51 2.0 4.0 0.00 0.00 0.00 92 1020.2
20260507132221 65 81 1.0 6.0 0.00 0.00 0.00 92 1019.9
20260507131718 65 67 0.0 3.0 0.00 0.00 0.00 92 1019.7
20260507131215 65 22 1.0 5.0 0.00 0.00 0.00 92 1019.7
20260507130712 66 66 2.0 5.0 0.00 0.00 0.00 92 1019.6
20260507130210 66 271 0.0 6.0 0.00 0.00 0.00 92 1019.6
20260507125708 66 335 0.0 5.0 0.00 0.00 0.00 92 1019.7
20260507125206 66 96 0.0 8.0 0.00 0.00 0.00 92 1019.6
20260507124702 66 49 2.0 4.0 0.00 0.00 0.00 91 1019.2
20260507124159 66 27 0.0 4.0 0.00 0.00 0.00 91 1019.0
20260507123657 66 71 1.0 9.0 0.00 0.00 0.00 91 1018.9
20260507123154 67 163 0.0 6.0 0.00 0.00 0.00 91 1019.0
20260507122649 67 101 2.0 3.0 0.00 0.00 0.00 91 1018.8
20260507122145 66 78 0.0 8.0 0.00 0.00 0.00 91 1018.7
20260507121642 67 314 0.0 3.0 0.00 0.00 0.00 91 1018.6
20260507121137 67 30 1.0 4.0 0.00 0.00 0.00 91 1018.8
20260507120634 67 264 0.0 5.0 0.00 0.00 0.00 91 1018.6
20260507120131 67 111 2.0 4.0 0.00 0.00 0.00 92 1018.5
20260507115627 67 67 1.0 4.0 0.00 0.00 0.00 92 1018.3